Volver al catálogo

CZ-6A DEB

ActivoPO
NORAD 60816·DEBRIS·🇨🇳 China

Lanzado Aug 6, 2024 desde Taiyuan Satellite Launch Center

Loading…

Próximos Pases (próximas 24 horas)

TLE

ActualizadoSource: Space-Track

Época: Sep 14, 2026, 11:21 UTC

1 60816U 24140GT  26257.47355789  .00001447  00000-0  53766-3 0  9998
2 60816  89.0404 267.2237 0011002 263.4528  96.5416 14.31659707108992

Sigue CZ-6A DEB en tiempo real con AllMySat

Download on the App Store